Miscellaneous Local Product
Issued by NWS North Platte, NE

Home | Current Version | Previous Version | Text Only | Print | Product List | Glossary On
Versions: 1 2 3 4 5 6 7 8 9 10 11 12 13 14 15 16 17 18 19 20 21 22 23 24 25 26 27 28 29 30 31 32 33 34 35 36 37 38 39 40 41 42 43 44 45 46 47 48 49 50
000
AXUS43 KLBF 181410
MISLBF


WESTERN AND NORTH CENTRAL NEBRASKA HOURLY WEATHER ROUNDUP
NATIONAL WEATHER SERVICE NORTH PLATTE NE
800 AM CST THU DEC 18 2014

***STATIONS NOT REPORTING VARIABLES SUCH AS SKY/WEATHER OR
PRESSURE ARE PROVIDED BY THE NEBRASKA DEPARTMENT OF
ROADS...RAWS...AND APRS NETWORKS...AND ARE NOT UNDER
NATIONAL WEATHER SERVICE QUALITY CONTROL***

...OBSERVATIONS IN AND NEAR THE EASTERN PANHANDLE OF NEBRASKA...

CITY           SKY/WX    TMP DP  RH WIND       PRES   REMARKS
PINE RIDGE     PTCLDY     6   2  83 CALM      30.02R
CHADRON        CLEAR      3  -1  83 W7        30.03S WCI  -9
ALLIANCE       CLEAR     -1  -6  79 SW5       30.01R WCI -11
SIDNEY         PTCLDY    16  12  84 NW13      30.01R WCI   2
WHITECLAY        N/A      5  -1  79 SE5         N/A  WCI  -4
LISCO            N/A     15  10  82 W6          N/A  WCI   6
BIG SPRINGS      N/A     22  21  95 W3          N/A
$$

...OBSERVATIONS IN NORTH CENTRAL NEBRASKA...

CITY           SKY/WX    TMP DP  RH WIND       PRES   REMARKS
VALENTINE      CLOUDY    25  21  85 W6        30.07R WCI  18
THEDFORD       CLOUDY    26  24  94 SW5       30.07S WCI  20
AINSWORTH      CLOUDY    24  23  96 CALM      30.08S
O`NEILL        CLOUDY    23  22  96 CALM      30.15R
ORD            CLOUDY    23  20  88 SE6       30.14R WCI  16
BROKEN BOW     CLOUDY    24  23  96 SE6       30.11R FOG     WCI  17
BROWNLEE         N/A     23  21  93 CALM        N/A
SPRINGVIEW       N/A     24  21  87 CALM        N/A
ROSE             N/A     28  28 100 MISG        N/A
SARGENT          N/A     23  22  94 CALM        N/A
COMSTOCK         N/A     29  27  94 S3          N/A
CHAMBERS         N/A     23  21  91 CALM        N/A
$$

...OBSERVATIONS IN SOUTHWEST NEBRASKA AND FAR NORTHEAST COLORADO...

CITY           SKY/WX    TMP DP  RH WIND       PRES   REMARKS
WRAY           CLOUDY    19  18  95 W5        30.06R VSB 1/4 WCI  12
IMPERIAL       CLOUDY    25  23  92 W6        30.07R WCI  18
OGALLALA       CLOUDY    23  23  99 W5        30.07R FOG     WCI  17
NORTH PLATTE   CLOUDY    24  22  91 SW6       30.09S WCI  17
MCCOOK         CLOUDY    23  21  92 S5        30.12R WCI  17
LEXINGTON      CLOUDY    26  24  92 S3        30.13R
PAXTON           N/A     27  26  94 CALM        N/A
BRADY            N/A     24  22  91 CALM        N/A
GOTHENBURG       N/A     26  24  90 SW3         N/A
CALLAWAY         N/A     24  23  96 CALM        N/A
$$

...NORTH PLATTE AREA...

CITY           SKY/WX    TMP DP  RH WIND       PRES   REMARKS
AIRPORT        CLOUDY    24  22  91 SW6       30.09S WCI  17
DOWNTOWN         N/A     24  22  92 CALM        N/A
$$

...SOME WEATHER OBSERVATIONS FROM AROUND THE REGION...

CITY           SKY/WX    TMP DP  RH WIND       PRES   REMARKS
DENVER         MOCLDY    25  25 100 CALM      30.01R
LARAMIE        MOCLDY    13   8  81 SW10      29.98R WCI   0
CHEYENNE       CLEAR     27  15  61 W13       30.00R WCI  16
SCOTTSBLUFF    CLOUDY     8   5  87 W5        30.05R FOG     WCI   0
RAPID CITY     FOG       21  19  92 S6        30.00S VSB 1/2 WCI  13
PIERRE         CLOUDY    21  20  96 E6        30.10S WCI  13
WINNER         CLOUDY    24  21  88 SE9       30.11R WCI  14
SIOUX FALLS    CLOUDY    20  16  84 SE6       30.22S WCI  12
OMAHA          LGT SNOW  26  23  88 SE6       30.26R FOG     WCI  19
GRAND ISLAND   LGT SNOW  23  21  92 SE5       30.17S FOG     WCI  17
KANSAS CITY    LGT SNOW  28  26  92 E8        30.22R FOG     WCI  20
WICHITA        FOG       32  30  92 NE3       30.17R VSB 1/4
HAYS           CLOUDY    27  18  69 NE3       30.16R
LIBERAL        CLOUDY    32  28  86 CALM      30.12R
GOODLAND       FOG       20  19  96 W6        30.08R VSB 1/4 WCI  12
$$



USA.gov is the U.S. government's official web portal to all federal, state and local government web resources and services.